SHT8A EGLL-EGPH

Flight info

Callsign SHT8A
Flight time 0h 51m
Altitude 36000
Route ULTIB T420 TNT UN57 POL UN601 RIBEL DCT INPIP
Aircraft A320/M-SDE3FGHIRWY/LB1

Departure

Time 2026-05-07 09:12
Airport London Heathrow Airport (EGLL)

Arrival

Time 2026-05-07 10:03
Airport Edinburgh Airport (EGPH)
Time Latitude Longitude Altitude Speed Heading
2026-05-07 08:46 51.47361 -0.48586 88 ft 0 kts 269°
2026-05-07 09:04 51.47361 -0.48554 86 ft 4 kts 269°
2026-05-07 09:04 51.47361 -0.48519 86 ft 4 kts 266°
2026-05-07 09:04 51.47368 -0.48483 89 ft 4 kts 215°
2026-05-07 09:04 51.47390 -0.48474 87 ft 4 kts 179°
2026-05-07 09:05 51.47400 -0.48474 86 ft 0 kts 179°
2026-05-07 09:07 51.47399 -0.48474 86 ft 1 kts 179°
2026-05-07 09:07 51.47384 -0.48474 88 ft 5 kts 180°
2026-05-07 09:07 51.47335 -0.48474 86 ft 9 kts 180°
2026-05-07 09:08 51.47264 -0.48473 86 ft 12 kts 180°
2026-05-07 09:08 51.47172 -0.48473 86 ft 15 kts 179°
2026-05-07 09:08 51.47092 -0.48472 89 ft 11 kts 180°
2026-05-07 09:08 51.47017 -0.48471 87 ft 9 kts 180°
2026-05-07 09:09 51.46940 -0.48470 88 ft 12 kts 180°
2026-05-07 09:09 51.46864 -0.48469 87 ft 8 kts 180°
2026-05-07 09:09 51.46810 -0.48469 86 ft 9 kts 180°
2026-05-07 09:09 51.46734 -0.48469 86 ft 12 kts 180°
2026-05-07 09:10 51.46647 -0.48468 86 ft 12 kts 180°
2026-05-07 09:10 51.46561 -0.48467 86 ft 10 kts 179°
2026-05-07 09:10 51.46500 -0.48466 86 ft 6 kts 178°
2026-05-07 09:10 51.46479 -0.48407 87 ft 8 kts 90°
2026-05-07 09:11 51.46479 -0.48386 89 ft 0 kts 90°
2026-05-07 09:11 51.46479 -0.48369 88 ft 13 kts 89°
2026-05-07 09:11 51.46480 -0.47809 87 ft 85 kts 90°
2026-05-07 09:11 51.46485 -0.46543 92 ft 139 kts 90°
2026-05-07 09:12 51.46497 -0.44826 419 ft 154 kts 89°
2026-05-07 09:12 51.46531 -0.43107 1087 ft 154 kts 90°
2026-05-07 09:12 51.46655 -0.41339 1516 ft 172 kts 71°
2026-05-07 09:12 51.47341 -0.39628 1848 ft 195 kts 50°
2026-05-07 09:13 51.48282 -0.37875 2175 ft 220 kts 51°
2026-05-07 09:13 51.49302 -0.35925 2658 ft 243 kts 51°
2026-05-07 09:13 51.50427 -0.33764 3293 ft 259 kts 50°
2026-05-07 09:13 51.51604 -0.31508 4192 ft 265 kts 50°
2026-05-07 09:14 51.52593 -0.28975 5078 ft 273 kts 69°
2026-05-07 09:14 51.53230 -0.26076 5728 ft 279 kts 66°
2026-05-07 09:14 51.54372 -0.23630 5931 ft 275 kts 37°
2026-05-07 09:14 51.56093 -0.22378 6003 ft 273 kts
2026-05-07 09:15 51.57957 -0.22623 6022 ft 270 kts 344°
2026-05-07 09:15 51.59801 -0.23299 6015 ft 273 kts 347°
2026-05-07 09:15 51.61639 -0.24012 6710 ft 275 kts 338°
2026-05-07 09:15 51.63357 -0.25369 7632 ft 276 kts 329°
2026-05-07 09:16 51.65029 -0.26924 8530 ft 279 kts 328°
2026-05-07 09:16 51.66713 -0.28528 9385 ft 283 kts 328°
2026-05-07 09:16 51.68411 -0.30164 10204 ft 288 kts 329°
2026-05-07 09:16 51.70200 -0.31896 10506 ft 311 kts 329°
2026-05-07 09:17 51.72109 -0.33750 10924 ft 325 kts 328°
2026-05-07 09:17 51.74049 -0.35633 11593 ft 331 kts 328°
2026-05-07 09:17 51.76036 -0.37560 12314 ft 335 kts 328°
2026-05-07 09:17 51.78051 -0.39515 13057 ft 339 kts 328°
2026-05-07 09:18 51.80087 -0.41490 13771 ft 343 kts 328°
2026-05-07 09:18 51.82152 -0.43490 14443 ft 347 kts 328°
2026-05-07 09:18 51.84230 -0.45502 15108 ft 349 kts 328°
2026-05-07 09:18 51.86323 -0.47533 15754 ft 352 kts 328°
2026-05-07 09:19 51.88435 -0.49586 16389 ft 356 kts 327°
2026-05-07 09:19 51.90541 -0.51638 17017 ft 359 kts 328°
2026-05-07 09:19 51.92694 -0.53735 17664 ft 362 kts 327°
2026-05-07 09:19 51.94865 -0.55849 18301 ft 366 kts 328°
2026-05-07 09:20 51.97066 -0.57995 18860 ft 369 kts 328°
2026-05-07 09:20 51.99252 -0.60133 19429 ft 373 kts 328°
2026-05-07 09:20 52.01488 -0.62322 19998 ft 376 kts 328°
2026-05-07 09:20 52.03747 -0.64533 20563 ft 380 kts 328°
2026-05-07 09:21 52.06024 -0.66762 21103 ft 384 kts 328°
2026-05-07 09:21 52.08325 -0.69020 21629 ft 388 kts 328°
2026-05-07 09:21 52.10653 -0.71310 22149 ft 392 kts 328°
2026-05-07 09:21 52.12962 -0.73585 22702 ft 395 kts 328°
2026-05-07 09:22 52.15331 -0.75921 23206 ft 399 kts 328°
2026-05-07 09:22 52.17724 -0.78282 23718 ft 403 kts 329°
2026-05-07 09:22 52.20132 -0.80665 24158 ft 406 kts 329°
2026-05-07 09:22 52.22559 -0.83073 24622 ft 409 kts 329°
2026-05-07 09:23 52.24996 -0.85489 25084 ft 411 kts 329°
2026-05-07 09:23 52.27446 -0.87914 25526 ft 413 kts 329°
2026-05-07 09:23 52.29883 -0.90331 25951 ft 415 kts 329°
2026-05-07 09:23 52.32358 -0.92796 26385 ft 418 kts 329°
2026-05-07 09:24 52.34856 -0.95289 26822 ft 420 kts 329°
2026-05-07 09:24 52.37362 -0.97794 27235 ft 422 kts 329°
2026-05-07 09:24 52.39847 -1.00282 27627 ft 425 kts 330°
2026-05-07 09:24 52.42378 -1.02814 27999 ft 428 kts 330°
2026-05-07 09:25 52.44924 -1.05365 28363 ft 430 kts 330°
2026-05-07 09:25 52.47491 -1.07939 28743 ft 433 kts 330°
2026-05-07 09:25 52.50067 -1.10526 29122 ft 435 kts 330°
2026-05-07 09:25 52.52656 -1.13126 29498 ft 437 kts 330°
2026-05-07 09:26 52.55269 -1.15754 29884 ft 440 kts 330°
2026-05-07 09:26 52.57883 -1.18387 30230 ft 442 kts 330°
2026-05-07 09:26 52.60511 -1.21038 30548 ft 444 kts 330°
2026-05-07 09:26 52.63121 -1.23676 30858 ft 446 kts 330°
2026-05-07 09:27 52.65774 -1.26363 31167 ft 449 kts 330°
2026-05-07 09:27 52.68437 -1.29070 31564 ft 448 kts 330°
2026-05-07 09:27 52.73749 -1.34475 32499 ft 447 kts 330°
2026-05-07 09:28 52.76394 -1.37167 32925 ft 446 kts 330°
2026-05-07 09:28 52.79001 -1.39825 33401 ft 444 kts 330°
2026-05-07 09:28 52.81629 -1.42506 33876 ft 443 kts 330°
2026-05-07 09:28 52.84255 -1.45192 34303 ft 442 kts 330°
2026-05-07 09:29 52.86870 -1.47873 34651 ft 442 kts 330°
2026-05-07 09:29 52.89487 -1.50565 34986 ft 442 kts 329°
2026-05-07 09:29 52.92097 -1.53256 35321 ft 442 kts 329°
2026-05-07 09:29 52.94714 -1.55957 35619 ft 442 kts 329°
2026-05-07 09:30 52.97328 -1.58651 35918 ft 442 kts 329°
2026-05-07 09:30 52.99947 -1.61353 36060 ft 443 kts 329°
2026-05-07 09:30 53.02531 -1.64023 36084 ft 443 kts 328°
2026-05-07 09:31 53.08007 -1.68631 36084 ft 441 kts 340°
2026-05-07 09:31 53.13773 -1.72192 36082 ft 442 kts 340°
2026-05-07 09:32 53.19535 -1.75751 36080 ft 441 kts 340°
2026-05-07 09:32 53.25304 -1.79336 36085 ft 442 kts 340°
2026-05-07 09:33 53.31041 -1.82921 36092 ft 443 kts 340°
2026-05-07 09:33 53.36819 -1.86538 36095 ft 443 kts 340°
2026-05-07 09:34 53.42590 -1.90161 36106 ft 443 kts 340°
2026-05-07 09:34 53.48336 -1.93777 36101 ft 443 kts 339°
2026-05-07 09:35 53.54156 -1.97459 36077 ft 454 kts 339°
2026-05-07 09:35 53.60166 -2.01267 36078 ft 466 kts 339°
2026-05-07 09:36 53.66263 -2.05139 36076 ft 470 kts 339°
2026-05-07 09:36 53.72344 -2.09017 36079 ft 470 kts 339°
2026-05-07 09:37 53.78468 -2.13005 36068 ft 472 kts 338°
2026-05-07 09:37 53.84554 -2.17188 36067 ft 471 kts 337°
2026-05-07 09:38 53.90630 -2.21427 36069 ft 472 kts 337°
2026-05-07 09:38 53.96719 -2.25628 36076 ft 472 kts 337°
2026-05-07 09:39 54.02788 -2.29787 36079 ft 473 kts 337°
2026-05-07 09:39 54.08904 -2.33987 36073 ft 473 kts 337°
2026-05-07 09:40 54.14968 -2.38184 36071 ft 473 kts 337°
2026-05-07 09:40 54.21059 -2.42414 36066 ft 473 kts 337°
2026-05-07 09:41 54.27149 -2.46668 35676 ft 469 kts 336°
2026-05-07 09:41 54.30173 -2.48783 35422 ft 470 kts 336°
2026-05-07 09:41 54.33199 -2.50899 35160 ft 470 kts 336°
2026-05-07 09:41 54.36240 -2.53028 34687 ft 469 kts 337°
2026-05-07 09:42 54.39217 -2.55119 34185 ft 468 kts 337°
2026-05-07 09:42 54.42232 -2.57238 33623 ft 468 kts 336°
2026-05-07 09:42 54.45254 -2.59365 33043 ft 468 kts 336°
2026-05-07 09:42 54.48276 -2.61499 32493 ft 468 kts 336°
2026-05-07 09:43 54.51290 -2.63632 31941 ft 468 kts 336°
2026-05-07 09:43 54.54318 -2.65780 31385 ft 469 kts 336°
2026-05-07 09:43 54.57329 -2.67918 30854 ft 469 kts 336°
2026-05-07 09:43 54.60317 -2.70040 30345 ft 470 kts 335°
2026-05-07 09:44 54.63349 -2.72192 29774 ft 472 kts 335°
2026-05-07 09:44 54.66398 -2.74359 29172 ft 474 kts 335°
2026-05-07 09:44 54.69456 -2.76542 28582 ft 475 kts 336°
2026-05-07 09:44 54.72518 -2.78734 28015 ft 477 kts 336°
2026-05-07 09:45 54.75594 -2.80941 27449 ft 478 kts 336°
2026-05-07 09:45 54.78664 -2.83148 26894 ft 479 kts 336°
2026-05-07 09:45 54.81750 -2.85367 26351 ft 481 kts 336°
2026-05-07 09:45 54.84804 -2.87562 26031 ft 464 kts 336°
2026-05-07 09:46 54.87685 -2.89631 25972 ft 443 kts 336°
2026-05-07 09:46 54.90480 -2.91639 25825 ft 427 kts 336°
2026-05-07 09:46 54.93194 -2.93596 25366 ft 420 kts 336°
2026-05-07 09:46 54.95892 -2.95546 24827 ft 416 kts 335°
2026-05-07 09:47 54.98555 -2.97478 24302 ft 413 kts 335°
2026-05-07 09:47 55.01203 -2.99407 23790 ft 410 kts 335°
2026-05-07 09:47 55.03827 -3.01324 23241 ft 408 kts 335°
2026-05-07 09:47 55.06434 -3.03227 22687 ft 405 kts 335°
2026-05-07 09:48 55.08987 -3.05087 22178 ft 401 kts 335°
2026-05-07 09:48 55.11619 -3.06617 21564 ft 396 kts 347°
2026-05-07 09:48 55.14349 -3.07120 20614 ft 393 kts 354°
2026-05-07 09:48 55.17069 -3.07450 19704 ft 389 kts 354°
2026-05-07 09:49 55.19757 -3.07745 18810 ft 384 kts 354°
2026-05-07 09:49 55.22410 -3.08028 17884 ft 380 kts 354°
2026-05-07 09:49 55.25051 -3.08314 17317 ft 378 kts 353°
2026-05-07 09:49 55.27668 -3.08606 16776 ft 375 kts 353°
2026-05-07 09:50 55.30240 -3.08906 16233 ft 373 kts 353°
2026-05-07 09:50 55.32819 -3.09214 15693 ft 370 kts 353°
2026-05-07 09:50 55.35388 -3.09523 15147 ft 368 kts 353°
2026-05-07 09:50 55.37936 -3.09831 14615 ft 366 kts 353°
2026-05-07 09:51 55.40448 -3.10134 13779 ft 360 kts 353°
2026-05-07 09:51 55.42912 -3.10425 12766 ft 357 kts 354°
2026-05-07 09:51 55.45377 -3.10710 11808 ft 353 kts 354°
2026-05-07 09:51 55.47795 -3.10990 11277 ft 338 kts 354°
2026-05-07 09:52 55.50061 -3.11248 11129 ft 315 kts 354°
2026-05-07 09:52 55.52208 -3.11499 10655 ft 306 kts 353°
2026-05-07 09:52 55.54320 -3.11706 10081 ft 303 kts 357°
2026-05-07 09:52 55.56430 -3.11683 9448 ft 300 kts 359°
2026-05-07 09:53 55.58498 -3.11621 9104 ft 299 kts 359°
2026-05-07 09:53 55.60572 -3.11548 8774 ft 298 kts 359°
2026-05-07 09:53 55.62640 -3.11468 8460 ft 295 kts 359°
2026-05-07 09:53 55.64685 -3.11389 8144 ft 292 kts 359°
2026-05-07 09:54 55.66715 -3.11306 7806 ft 291 kts 358°
2026-05-07 09:54 55.68714 -3.11209 7487 ft 289 kts 358°
2026-05-07 09:54 55.70722 -3.11124 7207 ft 286 kts 359°
2026-05-07 09:54 55.72708 -3.11042 6920 ft 285 kts 358°
2026-05-07 09:55 55.74685 -3.10939 6628 ft 283 kts 359°
2026-05-07 09:55 55.76653 -3.10844 6332 ft 281 kts 359°
2026-05-07 09:55 55.78606 -3.10771 6021 ft 279 kts 359°
2026-05-07 09:55 55.80542 -3.10696 5680 ft 278 kts 359°
2026-05-07 09:56 55.82476 -3.10615 5352 ft 277 kts 359°
2026-05-07 09:56 55.84399 -3.10539 5030 ft 276 kts 359°
2026-05-07 09:56 55.86294 -3.10456 4712 ft 274 kts 359°
2026-05-07 09:56 55.88186 -3.10372 4486 ft 267 kts 359°
2026-05-07 09:57 55.89989 -3.10290 4324 ft 248 kts 359°
2026-05-07 09:57 55.91655 -3.10204 4161 ft 231 kts 359°
2026-05-07 09:57 55.93232 -3.10113 3846 ft 223 kts 359°
2026-05-07 09:57 55.94782 -3.10024 3541 ft 222 kts 359°
2026-05-07 09:58 55.96309 -3.09937 3272 ft 221 kts 359°
2026-05-07 09:58 55.97823 -3.10144 3010 ft 215 kts 344°
2026-05-07 09:58 55.99240 -3.10809 2875 ft 206 kts 340°
2026-05-07 09:58 56.00573 -3.11615 2660 ft 198 kts 323°
2026-05-07 09:59 56.01528 -3.13270 2353 ft 188 kts 293°
2026-05-07 09:59 56.01874 -3.15410 2208 ft 181 kts 265°
2026-05-07 09:59 56.01621 -3.17566 2207 ft 177 kts 240°
2026-05-07 09:59 56.01009 -3.19429 2217 ft 167 kts 236°
2026-05-07 10:00 56.00422 -3.21174 2038 ft 161 kts 236°
2026-05-07 10:00 55.99852 -3.22868 1819 ft 155 kts 236°
2026-05-07 10:00 55.99497 -3.23925 1700 ft 145 kts 235°
2026-05-07 10:00 55.99002 -3.25394 1515 ft 134 kts 234°
2026-05-07 10:01 55.98377 -3.27244 1271 ft 130 kts 234°
2026-05-07 10:01 55.97912 -3.28617 1099 ft 129 kts 234°
2026-05-07 10:01 55.97449 -3.29986 923 ft 128 kts 236°
2026-05-07 10:01 55.96990 -3.31349 720 ft 128 kts 236°
2026-05-07 10:02 55.96684 -3.32254 608 ft 129 kts 236°
2026-05-07 10:02 55.96223 -3.33621 438 ft 130 kts 236°
2026-05-07 10:02 55.95756 -3.35002 235 ft 130 kts 238°
2026-05-07 10:02 55.95293 -3.36378 113 ft 127 kts 237°
2026-05-07 10:03 55.94913 -3.37493 112 ft 81 kts 239°
2026-05-07 10:03 55.94773 -3.37914 114 ft 18 kts 239°
2026-05-07 10:03 55.94729 -3.38035 115 ft 10 kts 227°
2026-05-07 10:03 55.94660 -3.38023 114 ft 12 kts 148°
2026-05-07 10:04 55.94596 -3.37943 114 ft 12 kts 131°
2026-05-07 10:04 55.94620 -3.37797 115 ft 14 kts 58°
2026-05-07 10:04 55.94677 -3.37630 114 ft 17 kts 59°
2026-05-07 10:04 55.94743 -3.37435 116 ft 20 kts 59°
2026-05-07 10:05 55.94819 -3.37213 115 ft 22 kts 58°
2026-05-07 10:05 55.94884 -3.37022 115 ft 14 kts 59°
2026-05-07 10:05 55.94925 -3.36899 115 ft 9 kts 64°
2026-05-07 10:05 55.94897 -3.36791 113 ft 11 kts 118°
2026-05-07 10:06 55.94924 -3.36662 115 ft 5 kts 58°
2026-05-07 10:06 55.94925 -3.36607 116 ft 6 kts 115°
2026-05-07 10:06 55.94896 -3.36565 113 ft 4 kts 148°
2026-05-07 10:06 55.94882 -3.36550 113 ft 0 kts 148°